Regional Weather Roundup
Issued by NWS

Home | Current Version | Previous Version | Graphics & Text | Print | Product List | Glossary On
Versions: 1 2 3 4 5 6 7 8 9 10 11 12 13 14 15 16 17 18 19 20 21 22 23 24 25 26 27 28 29 30 31 32 33 34 35 36 37 38 39 40 41 42 43 44 45 46 47 48 49 50
000
ASUS43 KBIS 061610
RWRND

NORTH DAKOTA REGIONAL WEATHER ROUNDUP
NATIONAL WEATHER SERVICE BISMARCK ND
1100 AM CDT WED MAY 06 2015

NOTE: "FAIR" INDICATES FEW OR NO CLOUDS BELOW 12,000 FEET WITH NO
SIGNIFICANT WEATHER AND/OR OBSTRUCTIONS TO VISIBILITY.


NDZ001>003-009>011-017-061700-
NORTHWEST NORTH DAKOTA

CITY           SKY/WX    TMP DP  RH WIND       PRES   REMARKS
WILLISTON      LGT RAIN  61  54  77 S8G21     29.71R
MINOT          LGT RAIN  62  58  86 SE14      29.75F FOG
MINOT AFB      DRIZZLE   63  63  99 S16       29.74S
$$

NDZ018>021-031>035-040>046-061700-
SOUTHWEST NORTH DAKOTA

CITY           SKY/WX    TMP DP  RH WIND       PRES   REMARKS
BISMARCK       CLOUDY    60  58  92 SE16      29.75F FOG
DICKINSON      CLOUDY    60  53  77 SE14      29.71S
GARRISON         N/A     60  58  92 SE10      29.75F
HETTINGER ARPT LGT RAIN  57  54  89 SE8       29.72F FOG
$$

NDZ004>008-012>016-024-026-027-054-061700-
NORTHEAST NORTH DAKOTA

CITY           SKY/WX    TMP DP  RH WIND       PRES   REMARKS
GRAND FORKS    LGT RAIN  60  57  89 S14       29.89S FOG
GRND FRKS AFB  LGT RAIN  59  57  94 S13       29.88S
DEVILS LAKE    CLOUDY    57  54  88 SE13      29.83S
$$

NDZ022-023-025-028>030-036>039-047>053-061700-
SOUTHEAST NORTH DAKOTA

CITY           SKY/WX    TMP DP  RH WIND       PRES   REMARKS
FARGO          CLOUDY    60  57  89 SE13      29.89S
JAMESTOWN      CLOUDY    58  57  97 SE15      29.82F FOG
$$



USA.gov is the U.S. government's official web portal to all federal, state and local government web resources and services.